This is the latest recevied weather packets stored in our database for station/object DM4XI-13. If no packets are shown the sender has not sent any weather packets the latest 10 day(s).
| Time | Temp. | Humidity | Pressure | Rain* | Wind** | Luminosity | Snow |
|---|---|---|---|---|---|---|---|
| 1777209363 | 16.67° C | 28% | 1020.1 hPa | 0 mm | 0.89 m/s, 246° | 356 W/m² | - |
| 1777209303 | 16.67° C | 30% | 1019.9 hPa | 0 mm | 1.34 m/s, 301° | 368 W/m² | - |
| 1777209242 | 16.11° C | 30% | 1019.9 hPa | 0 mm | 0 m/s | 387 W/m² | - |
| 1777209181 | 16.11° C | 30% | 1020.1 hPa | 0 mm | 0.89 m/s, 284° | 357 W/m² | - |
| 1777209119 | 16.11° C | 31% | 1020.1 hPa | 0 mm | 0.89 m/s, 243° | 341 W/m² | - |
| 1777209058 | 16.11° C | 30% | 1020 hPa | 0 mm | 0.89 m/s, 7° | 286 W/m² | - |
| 1777208997 | 16.11° C | 31% | 1019.8 hPa | 0 mm | 0.89 m/s, 285° | 295 W/m² | - |
| 1777208936 | 16.67° C | 29% | 1019.8 hPa | 0 mm | 1.34 m/s, 99° | 305 W/m² | - |
| 1777208875 | 16.67° C | 29% | 1019.9 hPa | 0 mm | 1.34 m/s, 13° | 344 W/m² | - |
| 1777208814 | 16.67° C | 29% | 1019.9 hPa | 0 mm | 2.68 m/s, 331° | 297 W/m² | - |
| 1777208754 | 16.67° C | 31% | 1020.1 hPa | 0 mm | 1.79 m/s, 2° | 350 W/m² | - |
| 1777208692 | 16.67° C | 29% | 1019.9 hPa | 0 mm | 1.79 m/s, 32° | 413 W/m² | - |
| 1777208632 | 16.67° C | 29% | 1020 hPa | 0 mm | 0.45 m/s, 316° | 341 W/m² | - |
| 1777208571 | 16.67° C | 29% | 1020.1 hPa | 0 mm | 1.34 m/s, 284° | 363 W/m² | - |
| 1777208510 | 16.67° C | 30% | 1020.1 hPa | 0 mm | 2.24 m/s, 326° | 391 W/m² | - |
| 1777208449 | 16.67° C | 30% | 1020.1 hPa | 0 mm | 1.34 m/s, 311° | 426 W/m² | - |
| 1777208388 | 16.67° C | 31% | 1019.8 hPa | 0 mm | 1.34 m/s, 358° | 436 W/m² | - |
| 1777208327 | 16.67° C | 30% | 1019.8 hPa | 0 mm | 1.79 m/s, 306° | 486 W/m² | - |
| 1777208266 | 16.67° C | 29% | 1020 hPa | 0 mm | 0.45 m/s, 203° | 525 W/m² | - |
| 1777208205 | 16.67° C | 30% | 1020 hPa | 0 mm | 0 m/s | 533 W/m² | - |
| 1777208144 | 16.67° C | 30% | 1020 hPa | 0 mm | 0.89 m/s, 179° | 534 W/m² | - |
| 1777208083 | 16.67° C | 30% | 1020 hPa | 0 mm | 1.34 m/s, 318° | 536 W/m² | - |
| 1777208022 | 17.22° C | 30% | 1019.9 hPa | 0 mm | 1.34 m/s, 299° | 518 W/m² | - |
| 1777207961 | 17.22° C | 29% | 1020 hPa | 0 mm | 1.34 m/s, 310° | 540 W/m² | - |
| 1777207900 | 17.78° C | 29% | 1020 hPa | 0 mm | 2.24 m/s, 303° | 526 W/m² | - |
* Rain latest hour (hover to see other rain measurements)
** Current wind speed in m/s (hover to see current wind gust speed)